Regional Weather Roundup
Issued by NWS

Current Version | Previous Version | Text Only | Print | Product List | Glossary On
Versions: 1 2 3 4 5 6 7 8 9 10 11 12 13 14 15 16 17 18 19 20 21 22 23 24 25 26 27 28 29 30 31 32 33 34 35 36 37 38 39 40 41 42 43 44 45 46 47 48 49 50
000
ASUS42 KFFC 202203
RWRGA
WEATHER ROUNDUP FOR GEORGIA
NATIONAL WEATHER SERVICE PEACHTREE CITY GA
600 PM EDT WED AUG 20 2014

NOTE: "FAIR" INDICATES FEW OR NO CLOUDS BELOW 12,000 FEET WITH NO
SIGNIFICANT WEATHER AND/OR OBSTRUCTIONS TO VISIBILITY.

* = USE WITH CAUTION. THE STATIONS MARKED WITH AN ASTERISK MAY NOT
REPORT WEATHER SUCH AS PRECIPITATION, FOG, OR THUNDER AND ARE NOT
QUALITY CONTROLLED BY NWS.

THE REMARK "TC" DENOTES TEMPERATURE READING IN DEGREES CELSIUS.

GAZ001>058-202300-
NORTH GEORGIA

CITY           SKY/WX    TMP DP  RH WIND       PRES   REMARKS
ATLANTA        LGT RAIN  76  70  82 W5        30.07F
ATHENS         CLOUDY    81  66  60 VRB6      30.03S
CHAMBLEE       CLOUDY    79  69  71 W3        30.05F
PEACHTREE CITY TSTM      74  69  85 W10       30.09R
ROME           TSTM      77  71  82 SE9       30.01R
WEST ATLANTA   CLOUDY    77  71  82 SW3       30.06R
GAINESVILLE    CLOUDY    83  72  69 SW8       30.07S
CARTERSVILLE   CLOUDY    76  69  79 CALM      30.04S


CITY           SKY/WX    TMP DP  RH WIND       PRES   REMARKS
DALTON*        PTSUNNY   82  68  61 CALM      30.01S
LAWRENCEVILLE* SUNNY     81  64  57 SW13      30.06S
MARIETTA       PTSUNNY   78  71  78 SW7       30.07R
KENNESAW*      PTSUNNY   75  66  73 S6        30.08R
$$

GAZ059>098-102>109-202300-
CENTRAL GEORGIA

CITY           SKY/WX    TMP DP  RH WIND       PRES   REMARKS
AUGUSTA-BUSH   PTSUNNY   86  68  54 S9        29.97R
AUGUSTA-DANIEL LGT RAIN  88  70  55 CALM      29.99S HX  93
COLUMBUS       MOSUNNY   92  71  50 W7        30.02S HX  98
MACON          LGT RAIN  74  72  93 CALM      30.05S
ROBINS AFB     LGT RAIN  76  71  83 CALM      30.04F


CITY           SKY/WX    TMP DP  RH WIND       PRES   REMARKS
LAGRANGE*      MOSUNNY   94  77  56 W6        30.05R HX 108
SYLVANIA*      MOSUNNY   95  73  48 W6        29.99S HX 105
MILLEDGEVILLE* CLOUDY    64  55  72 W6        30.01F
$$

GAZ099>101-110>166-202300-
SOUTH GEORGIA

CITY           SKY/WX    TMP DP  RH WIND       PRES   REMARKS
SAVANNAH       MOSUNNY   95  70  44 NW5       29.98R HX 101
VALDOSTA       MOSUNNY   95  66  38 CALM      30.02S HX  98
ALMA           SUNNY     94  70  45 W8        30.00R HX 100
ST SIMONS      MOSUNNY   94  68  42 NW6       29.99R HX  98
FT STEWART     MOSUNNY   95  71  45 W6        29.98R HX 101
ALBANY         MOSUNNY   95  71  45 SW9       30.03S HX 102
HUNTER AFB     MOSUNNY   93  72  49 W3        29.96S HX 100
MOODY AFB      SUNNY     93  72  49 W8        30.02S HX 101
BRUNSWICK      SUNNY     95  68  41 W5        30.00R HX  99


CITY           SKY/WX    TMP DP  RH WIND       PRES   REMARKS
BAINBRIDGE*    MOSUNNY   95  77  55 W15       30.03S HX 109
MOULTRIE*      SUNNY     93  70  46 W8        30.03S HX  99
VIDALIA*         N/A     93  72  49 CALM      29.99S HX 100
WAYCROSS*      MOSUNNY   98  73  44 W5        30.00S HX 108
DOUGLAS*       SUNNY     95  70  43 W8        30.02S HX 101
$$


USA.gov is the U.S. government's official web portal to all federal, state and local government web resources and services.